TimeEST,TemperatureF,Dew PointF,Humidity,Sea Level PressureIn,VisibilityMPH,Wind Direction,Wind SpeedMPH,Gust SpeedMPH,PrecipitationIn,Events,Conditions,WindDirDegrees,DateUTC
12:14 AM,43.2,37.9,82,30.21,10.0,Calm,Calm,-,N/A,,Clear,0,2012-11-20 05:14:00
12:35 AM,43.0,38.1,83,30.20,7.0,Calm,Calm,-,N/A,,Clear,0,2012-11-20 05:35:00
12:55 AM,43.2,38.5,84,30.20,7.0,Calm,Calm,-,N/A,,Clear,0,2012-11-20 05:55:00
1:14 AM,43.7,38.8,83,30.20,7.0,Calm,Calm,-,N/A,,Clear,0,2012-11-20 06:14:00
1:35 AM,43.7,38.8,83,30.19,7.0,Calm,Calm,-,N/A,,Scattered Clouds,0,2012-11-20 06:35:00
1:55 AM,43.0,39.0,86,30.19,7.0,Calm,Calm,-,N/A,,Scattered Clouds,0,2012-11-20 06:55:00
2:14 AM,42.8,39.0,86,30.19,7.0,Calm,Calm,-,N/A,,Clear,0,2012-11-20 07:14:00
2:35 AM,42.8,39.0,86,30.19,7.0,Calm,Calm,-,N/A,,Scattered Clouds,0,2012-11-20 07:35:00
2:54 AM,42.1,38.5,87,30.18,7.0,Calm,Calm,-,N/A,,Scattered Clouds,0,2012-11-20 07:54:00
3:15 AM,41.9,38.3,87,30.18,7.0,Calm,Calm,-,N/A,,Mostly Cloudy,0,2012-11-20 08:15:00
3:34 AM,42.4,38.7,86,30.17,7.0,Calm,Calm,-,N/A,,Scattered Clouds,0,2012-11-20 08:34:00
3:55 AM,43.0,39.4,87,30.17,5.0,Calm,Calm,-,N/A,,Mostly Cloudy,0,2012-11-20 08:55:00
4:15 AM,43.3,39.6,87,30.17,7.0,Calm,Calm,-,N/A,,Mostly Cloudy,0,2012-11-20 09:15:00
4:34 AM,43.7,40.1,87,30.17,5.0,Calm,Calm,-,N/A,,Overcast,0,2012-11-20 09:34:00
4:55 AM,44.1,40.8,88,30.17,5.0,Calm,Calm,-,N/A,,Mostly Cloudy,0,2012-11-20 09:55:00
5:14 AM,43.7,40.6,89,30.16,5.0,Calm,Calm,-,N/A,,Scattered Clouds,0,2012-11-20 10:14:00
5:34 AM,44.4,41.4,89,30.16,4.0,Calm,Calm,-,N/A,,Mostly Cloudy,0,2012-11-20 10:34:00
5:55 AM,44.2,41.2,89,30.17,4.0,Calm,Calm,-,N/A,,Mostly Cloudy,0,2012-11-20 10:55:00
6:14 AM,44.1,41.2,90,30.16,4.0,Calm,Calm,-,N/A,,Overcast,0,2012-11-20 11:14:00
6:35 AM,44.6,41.5,89,30.16,4.0,Calm,Calm,-,N/A,,Overcast,0,2012-11-20 11:35:00
6:54 AM,44.4,41.5,90,30.17,4.0,Calm,Calm,-,N/A,,Overcast,0,2012-11-20 11:54:00
7:15 AM,44.4,41.5,90,30.16,3.0,Calm,Calm,-,N/A,,Overcast,0,2012-11-20 12:15:00
7:34 AM,43.9,41.2,90,30.16,2.5,Calm,Calm,-,N/A,,Overcast,0,2012-11-20 12:34:00
7:55 AM,43.9,41.4,91,30.16,2.5,Calm,Calm,-,N/A,,Overcast,0,2012-11-20 12:55:00
8:15 AM,44.6,41.9,90,30.16,2.5,Calm,Calm,-,N/A,,Overcast,0,2012-11-20 13:15:00
8:34 AM,45.5,42.4,89,30.16,3.0,Calm,Calm,-,N/A,,Overcast,0,2012-11-20 13:34:00
8:55 AM,46.6,42.8,87,30.16,4.0,Calm,Calm,-,N/A,,Mostly Cloudy,0,2012-11-20 13:55:00
9:14 AM,47.7,42.4,82,30.16,5.0,Calm,Calm,-,N/A,,Haze,0,2012-11-20 14:14:00
9:34 AM,48.7,41.9,77,30.16,5.0,Calm,Calm,-,N/A,,Haze,0,2012-11-20 14:34:00
9:55 AM,49.1,41.2,74,30.16,7.0,West,3.5,-,N/A,,Overcast,280,2012-11-20 14:55:00
10:14 AM,49.5,40.6,72,30.16,7.0,WSW,4.6,-,N/A,,Overcast,250,2012-11-20 15:14:00
10:35 AM,50.2,41.0,71,30.15,7.0,Calm,Calm,-,N/A,,Overcast,0,2012-11-20 15:35:00
10:54 AM,51.1,41.4,69,30.16,7.0,Calm,Calm,-,N/A,,Overcast,0,2012-11-20 15:54:00
11:15 AM,51.4,41.0,68,30.15,7.0,Calm,Calm,-,N/A,,Overcast,0,2012-11-20 16:15:00
11:35 AM,52.2,40.8,65,30.15,10.0,Calm,Calm,-,N/A,,Overcast,0,2012-11-20 16:35:00
11:54 AM,52.9,40.6,63,30.14,10.0,Calm,Calm,-,N/A,,Overcast,0,2012-11-20 16:54:00
12:15 PM,53.6,40.1,60,30.13,10.0,Calm,Calm,-,N/A,,Overcast,0,2012-11-20 17:15:00
12:35 PM,54.1,40.6,60,30.13,10.0,Calm,Calm,-,N/A,,Overcast,0,2012-11-20 17:35:00
12:54 PM,54.7,40.5,59,30.12,7.0,Calm,Calm,-,N/A,,Overcast,0,2012-11-20 17:54:00
1:15 PM,55.0,39.9,57,30.12,10.0,Calm,Calm,-,N/A,,Overcast,0,2012-11-20 18:15:00
1:35 PM,55.6,39.4,55,30.12,7.0,Calm,Calm,-,N/A,,Overcast,0,2012-11-20 18:35:00
1:54 PM,55.8,39.2,54,30.11,7.0,Calm,Calm,-,N/A,,Overcast,0,2012-11-20 18:54:00
2:15 PM,56.3,39.0,52,30.10,7.0,East,3.5,-,N/A,,Overcast,80,2012-11-20 19:15:00
2:34 PM,56.7,38.8,51,30.10,10.0,SE,3.5,-,N/A,,Mostly Cloudy,130,2012-11-20 19:34:00
2:55 PM,56.7,38.8,51,30.10,10.0,Calm,Calm,-,N/A,,Overcast,0,2012-11-20 19:55:00
3:15 PM,56.3,39.2,53,30.10,10.0,Calm,Calm,-,N/A,,Overcast,0,2012-11-20 20:15:00
3:34 PM,56.5,38.8,52,30.11,10.0,Calm,Calm,-,N/A,,Overcast,0,2012-11-20 20:34:00
3:55 PM,56.5,39.2,52,30.12,10.0,Calm,Calm,-,N/A,,Overcast,0,2012-11-20 20:55:00
4:15 PM,56.3,39.0,52,30.11,10.0,Calm,Calm,-,N/A,,Overcast,0,2012-11-20 21:15:00
4:34 PM,56.3,39.2,53,30.12,7.0,Calm,Calm,-,N/A,,Overcast,0,2012-11-20 21:34:00
4:55 PM,55.8,38.8,53,30.13,10.0,Calm,Calm,-,N/A,,Overcast,0,2012-11-20 21:55:00
5:14 PM,55.6,38.8,53,30.13,7.0,ENE,3.5,-,N/A,,Overcast,70,2012-11-20 22:14:00
5:35 PM,55.8,38.7,53,30.14,10.0,ENE,4.6,-,N/A,,Overcast,70,2012-11-20 22:35:00
5:55 PM,55.4,41.5,60,30.15,10.0,ENE,4.6,-,N/A,,Overcast,70,2012-11-20 22:55:00
6:14 PM,54.3,42.6,65,30.15,10.0,ENE,3.5,-,N/A,Rain,Light Rain,70,2012-11-20 23:14:00
6:35 PM,53.4,43.9,70,30.15,10.0,Calm,Calm,-,N/A,Rain,Light Rain,0,2012-11-20 23:35:00
6:54 PM,53.6,44.1,70,30.16,10.0,Calm,Calm,-,N/A,Rain,Light Rain,0,2012-11-20 23:54:00
7:15 PM,52.7,45.7,77,30.16,7.0,Calm,Calm,-,N/A,Rain,Light Rain,0,2012-11-21 00:15:00
7:35 PM,52.2,46.4,81,30.16,7.0,Calm,Calm,-,N/A,,Overcast,0,2012-11-21 00:35:00
7:54 PM,52.9,45.3,75,30.15,7.0,SW,4.6,-,N/A,Rain,Light Rain,220,2012-11-21 00:54:00
8:15 PM,52.3,44.8,75,30.16,7.0,Calm,Calm,-,N/A,,Overcast,0,2012-11-21 01:15:00
8:35 PM,51.1,45.5,81,30.16,7.0,Calm,Calm,-,N/A,,Mostly Cloudy,0,2012-11-21 01:35:00
8:54 PM,51.3,45.7,81,30.16,7.0,Calm,Calm,-,N/A,,Overcast,0,2012-11-21 01:54:00
9:15 PM,51.8,45.7,80,30.17,7.0,Calm,Calm,-,N/A,,Overcast,0,2012-11-21 02:15:00
9:35 PM,50.9,45.5,82,30.17,7.0,Calm,Calm,-,N/A,,Overcast,0,2012-11-21 02:35:00
9:54 PM,50.9,45.5,82,30.16,7.0,Calm,Calm,-,N/A,,Overcast,0,2012-11-21 02:54:00
10:15 PM,51.6,46.4,82,30.16,7.0,Calm,Calm,-,N/A,,Overcast,0,2012-11-21 03:15:00
10:35 PM,51.6,45.7,80,30.16,7.0,Calm,Calm,-,N/A,,Overcast,0,2012-11-21 03:35:00
10:54 PM,51.1,45.0,80,30.16,7.0,Calm,Calm,-,N/A,,Overcast,0,2012-11-21 03:54:00
11:15 PM,50.7,45.1,81,30.16,7.0,Calm,Calm,-,N/A,,Overcast,0,2012-11-21 04:15:00
11:34 PM,50.0,45.3,84,30.17,7.0,ENE,4.6,-,N/A,,Overcast,70,2012-11-21 04:34:00
11:55 PM,49.5,45.0,84,30.18,7.0,Calm,Calm,-,N/A,,Overcast,0,2012-11-21 04:55:00